^^
Saratoga-Weather Station Historical Data
 
Daily Summary for December 07, 2019 Units:  Metric    English   Both

Notice: Undefined index: PHPSELF in C:\OpenGrADS\Contents\tmp\WU-History-inc.php on line 388
Daily Weekly Monthly Yearly Custom
  Current: High: Low: Average:
Temperature: 9.8 °C 9.9 °C 9.6 °C 9.8 °C
Dew Point: 7.9 °C 8.6 °C 7.7 °C 8 °C
Humidity: 88% 92% 87% 89%
Wind Speed: 27.8km/h 31.5km/h 25.9km/h 27.5km/h
Wind Gust: 27.8km/h 31.5km/h - -
WindWest - - West
Pressure: 1006.5 hPa 1006.5 hPa 1004.3 hPa -
Precipitation: 0.0 mm      
Historical Graphs
 
 
Tabular Data for December 07, 2019
Time Temperature Dew Point Pressure Wind Wind Speed Wind Gust Humidity Rainfall Rate (Hourly) solar
00:00 9.8 °C 8.1 °C 1004.3 hPa West 31.5 km/h 31.5 km/h 89% 0.2 mm 0.00 W/m2
00:05 9.8 °C 8.1 °C 1004.4 hPa West 29.6 km/h 29.6 km/h 89% 0.2 mm 0.00 W/m2
00:10 9.8 °C 8.6 °C 1004.3 hPa West 29.6 km/h 29.6 km/h 92% 0.0 mm 0.00 W/m2
00:15 9.8 °C 7.9 °C 1004.5 hPa West 29.6 km/h 29.6 km/h 88% 0.0 mm 0.00 W/m2
00:20 9.8 °C 7.9 °C 1004.6 hPa West 29.6 km/h 29.6 km/h 88% 0.0 mm 0.00 W/m2
00:25 9.8 °C 8.1 °C 1004.5 hPa West 29.6 km/h 29.6 km/h 89% 0.0 mm 0.00 W/m2
00:30 9.8 °C 8.6 °C 1004.7 hPa West 29.6 km/h 29.6 km/h 92% 0.0 mm 0.00 W/m2
00:35 9.9 °C 8.0 °C 1004.7 hPa West 29.6 km/h 29.6 km/h 88% 0.0 mm 0.00 W/m2
00:40 9.9 °C 8.1 °C 1004.7 hPa West 29.6 km/h 29.6 km/h 88% 0.0 mm 0.00 W/m2
00:45 9.9 °C 7.9 °C 1004.7 hPa West 29.6 km/h 29.6 km/h 87% 0.0 mm 0.00 W/m2
00:50 9.9 °C 8.1 °C 1004.8 hPa West 29.6 km/h 29.6 km/h 88% 0.0 mm 0.00 W/m2
00:55 9.8 °C 7.9 °C 1005.0 hPa West 29.6 km/h 29.6 km/h 88% 0.0 mm 0.00 W/m2
01:00 9.7 °C 8.0 °C 1004.9 hPa West 29.6 km/h 29.6 km/h 89% 0.0 mm 0.00 W/m2
01:05 9.7 °C 7.9 °C 1005.0 hPa West 25.9 km/h 25.9 km/h 89% 0.0 mm 0.00 W/m2
01:10 9.7 °C 8.1 °C 1005.0 hPa West 25.9 km/h 25.9 km/h 90% 0.0 mm 0.00 W/m2
01:15 9.7 °C 8.1 °C 1005.0 hPa West 25.9 km/h 25.9 km/h 90% 0.0 mm 0.00 W/m2
01:20 9.6 °C 8.1 °C 1005.1 hPa West 25.9 km/h 25.9 km/h 90% 0.0 mm 0.00 W/m2
01:25 9.6 °C 8.1 °C 1005.2 hPa West 25.9 km/h 25.9 km/h 90% 0.0 mm 0.00 W/m2
01:30 9.7 °C 7.9 °C 1005.3 hPa West 25.9 km/h 25.9 km/h 89% 0.0 mm 0.00 W/m2
01:35 9.7 °C 7.8 °C 1005.4 hPa West 25.9 km/h 25.9 km/h 88% 0.0 mm 0.00 W/m2
01:40 9.8 °C 7.9 °C 1005.4 hPa West 25.9 km/h 25.9 km/h 88% 0.0 mm 0.00 W/m2
01:45 9.8 °C 7.9 °C 1005.6 hPa West 25.9 km/h 25.9 km/h 88% 0.0 mm 0.00 W/m2
01:50 9.8 °C 7.9 °C 1005.6 hPa West 25.9 km/h 25.9 km/h 88% 0.0 mm 0.00 W/m2
01:55 9.7 °C 7.8 °C 1005.6 hPa West 25.9 km/h 25.9 km/h 88% 0.0 mm 0.00 W/m2
02:00 9.7 °C 7.8 °C 1005.7 hPa West 25.9 km/h 25.9 km/h 88% 0.0 mm 0.00 W/m2
02:05 9.7 °C 7.8 °C 1005.7 hPa West 25.9 km/h 25.9 km/h 88% 0.0 mm 0.00 W/m2
02:10 9.8 °C 7.7 °C 1005.9 hPa West 25.9 km/h 25.9 km/h 87% 0.0 mm 0.00 W/m2
02:15 9.8 °C 7.7 °C 1006.0 hPa West 25.9 km/h 25.9 km/h 87% 0.0 mm 0.00 W/m2
02:20 9.8 °C 7.8 °C 1006.1 hPa West 25.9 km/h 25.9 km/h 87% 0.0 mm 0.00 W/m2
02:25 9.8 °C 7.7 °C 1006.3 hPa West 25.9 km/h 25.9 km/h 87% 0.0 mm 0.00 W/m2
02:30 9.8 °C 7.7 °C 1006.4 hPa West 25.9 km/h 25.9 km/h 87% 0.0 mm 0.00 W/m2
02:35 9.8 °C 7.9 °C 1006.5 hPa West 27.8 km/h 27.8 km/h 88% 0.0 mm 0.00 W/m2
02:40 9.8 °C 7.9 °C 1006.5 hPa West 27.8 km/h 27.8 km/h 88% 0.0 mm 0.00 W/m2
Weerstation Beverwaard NL
Compliments of Weather Underground - 2 mb